160  
ASUS41 KBGM 240610  
RWRBGM  
 
REGIONAL WEATHER ROUNDUP  
NATIONAL WEATHER SERVICE BINGHAMTON NY  
200 AM EDT FRI MAR 24 2017  
 
NOTE: "FAIR" INDICATES FEW OR NO CLOUDS BELOW 12,000 FEET WITH NO  
SIGNIFICANT WEATHER AND/OR S TO VISIBILITY
.  
 
* = STATION(S) THAT DOES NOT REPORT PRECIPITATION, SUCH AS RAIN,  
SNOW, ETC, ALSO NO THUNDER OR FOG.
 
 
NYZ009-015>018-022>025-036-037-044>046-055>057-062-240700   
..CENTRAL NEW YORK
 
 
 
CITY SKY/WX TMP DP RH WIND PRES REMARKS
 
BINGHAMTON CLOUDY 29 7 39 S9 30.35S WCI 20  
CORTLAND CLOUDY 32 12 43 S7 30.35F WCI 26  
DANSVILLE CLOUDY 38 10 31 SE10 30.27F WCI 31  
ELMIRA CLOUDY 34 12 40 SE5 30.34F WCI 30  
SENECA FALLS CLOUDY 36 18 48 S17 30.31F WCI 25  
ITHACA CLOUDY 32 12 43 SE15 30.33F WCI 22  
HAMILTON CLOUDY 28 7 40 S10 30.36F WCI 19  
MONTICELLO CLOUDY 21 9 58 CALM 30.45R  
NORWICH CLOUDY 25 14 63 S5 30.40F WCI 19  
PENN YAN CLOUDY 35 15 44 S8G17 30.29F WCI 29  
ROME CLOUDY 28 12 51 E6 30.42S WCI 22  
SIDNEY CLOUDY 21 14 73 CALM 30.41S  
SYRACUSE CLOUDY 31 12 45 E9 30.34F WCI 23  

 
 
PAZ038>040-043-044-047-048-072-240700   
..NORTHEAST PENNSYLVANIA
 
 
 
CITY SKY/WX TMP DP RH WIND PRES REMARKS
 
HAZLETON CLEAR 30 10 43 SE7 30.44S WCI 23  
SCRANTON CLEAR 31 12 45 CALM 30.44R  

 

 
KEY  
WCI = WIND CHILL INDEX  
VSB = VISIBILITY  
HX = HEAT INDEX  

 
 
 
CLICK HERE TO GO TO PREVIOUS BULLETINS.

The Nexlab NY Page
The Nexlab PA Page Main Text Page